Regional Weather Roundup
Issued by NWS

Home | Current Version | Previous Version | Text Only | Print | Product List | Glossary On
Versions: 1 2 3 4 5 6 7 8 9 10 11 12 13 14 15 16 17 18 19 20 21 22 23 24 25 26 27 28 29 30 31 32 33 34 35 36 37 38 39 40 41 42 43 44 45 46 47 48 49 50
000
ASHW40 PHFO 290443
RWRHI

WEATHER ROUNDUP FOR HAWAII
NATIONAL WEATHER SERVICE HONOLULU HI
600 PM HST SAT MAY 28 2016

THIS IS AN AUTOMATED REPORT THAT HAS NOT BEEN QUALITY CONTROLLED.

NOTE..."FAIR" INDICATES FEW OR NO CLOUDS BELOW 12,000 FEET WITH NO
SIGNIFICANT WEATHER AND/OR OBSTRUCTIONS TO VISIBILITY.

* - THESE SITES REPORT LIMITED FIELDS

HIZ001>004-290500-
KAUAI-NIIHAU-

CITY           SKY/WX    TMP DP  RH WIND       PRES   REMARKS
LIHUE APT      CLOUDY    75  69  81 W5        29.99S
PORT ALLEN*      N/A     81 N/A N/A E3          N/A
POIPU*           N/A     77 N/A N/A SW6         N/A
PRINCEVILLE*     N/A     81 N/A N/A N5          N/A
KOKOLE POINT*  NOT AVBL
MOLOAA DAIRY*    N/A     84  68  58 NE1         N/A
WAIMEA HTS*      N/A     77  68  73 SW1G7       N/A
PUU OPAE*        N/A     72  64  78 W6G13       N/A
PUU LUA*       NOT AVBL
MAKAHA RIDGE*    N/A     75  68  78 NW2         N/A
$$

HIZ005>011-290500-
OAHU-

CITY           SKY/WX    TMP DP  RH WIND       PRES   REMARKS
HONOLULU       PTSUNNY   79  69  71 S7        29.97S
KALAELOA       CLOUDY    83  68  60 W8        29.98S
KANEOHE MCB    CLOUDY    80  67  64 E5        29.95
WHEELER FIELD  NOT AVBL
BELLOWS*         N/A    N/A N/A N/A N1          N/A
KAHUKU*          N/A    N/A N/A N/A VRB6G13     N/A
WHEELER*         N/A    N/A N/A N/A NW7G15      N/A
WAIANAE HARBOR   N/A    N/A N/A N/A W12         N/A
DILLINGHAM*      N/A     82  66  57 MISG        N/A
KAHUKU TRN*      N/A     79  66  65 CALM        N/A
KAWAILOA*        N/A     73  70  88 N2G15       N/A
KII*             N/A     81  70  69 E9          N/A
MAKUA RANGE*     N/A     82  66  57 NW3G10      N/A
OAHU FOREST NW NOT AVBL
SCHOFIELD BRK*   N/A     75  66  73 MISG        N/A
SCHOFIELD S*   NOT AVBL
WAIANAE VLY*     N/A     73  64  73 W5          N/A
KUAOKALA*        N/A     75  66  73 NW7         N/A
HONOULIUULI*   NOT AVBL
MOKUOLOE IS*   NOT AVBL
PALEHUA*         N/A     68  68 100 NW3G9       N/A
WAIAWA PHB*    NOT AVBL
$$

HIZ012>013-290500-
MOLOKAI-

CITY           SKY/WX    TMP DP  RH WIND       PRES   REMARKS
MOLOKAI AIRPT  MOSUNNY   79  68  69 SE9       29.99R
KALAUPAPA      NOT AVBL
MAKAPULAPAI*     N/A     79  68  69 E12G17      N/A
MOLOKAI 1*     NOT AVBL
PUU ALII*        N/A     67  63  88 SW1         N/A
$$

HIZ016-290500-
KAHOOLAWE-

CITY           SKY/WX    TMP DP  RH WIND       PRES   REMARKS
KAHOOLAWE*       N/A     72 N/A N/A SE1         N/A
HAKIOAWA*        N/A     90  81  74 MISG      30.41R HX 108
HONOKANAIA*      N/A     82  67  60 NE13G25     N/A
KANELOA*         N/A     79  68  69 E14G23    30.04R
KEALIALALO*    NOT AVBL
LUA MAKIKA*    NOT AVBL
$$

HIZ014>015-290500-
LANAI-

CITY           SKY/WX    TMP DP  RH WIND       PRES   REMARKS
LANAI CITY     CLOUDY    74  68  81 W10       30.03R
LANAI 1*       NOT AVBL
$$

HIZ017>028-290500-
MAUI-

CITY           SKY/WX    TMP DP  RH WIND       PRES   REMARKS
KAHULUI        MOSUNNY   83  65  54 NE6       29.96R
KAPALUA-W MAUI MOSUNNY   82  64  54 S6        29.97
HANA AIRPORT   NOT AVBL
HANA*            N/A     79 N/A N/A SE6G14      N/A
HALEAKALA SUMM   N/A     48  18  29 N10         N/A
MAALAEA BAY*     N/A     81 N/A N/A N9G15       N/A
HALEAKALA*     NOT AVBL
KAUPO GAP*       N/A     64  63  94 CALM        N/A
KULA 1*          N/A     55  53  91 N3          N/A
$$

HIZ023>026-290500-
BIG ISLAND OF HAWAII COAST AND LOWER SLOPES-

CITY           SKY/WX    TMP DP  RH WIND       PRES   REMARKS
KAILUA KONA    SUNNY     82  72  71 SW12      29.95R
HILO           PTSUNNY   79  67  66 S3        29.98R
HONOKAA*         N/A     75 N/A N/A VRB1        N/A
KAWAIHAE MWT*    N/A     82 N/A N/A SW6         N/A
KAWAIHAE*        N/A     81 N/A N/A SW3       29.96R
SOUTH POINT*     N/A     73 N/A N/A N12         N/A
UPOLU AIRPORT*   N/A    N/A N/A N/A NE15G24     N/A
KAMUELA*       CLOUDY    72  64  78 W6        30.09R
HAKALAU*         N/A     55  55  99 E2          N/A
KALOKO-HONOKO*   N/A     81  70  69 CALM      29.95R
PALI 2*          N/A     66  63  88 NW7         N/A
KEALAKOMO*       N/A     79  66  65 E9          N/A
KAUPULEHU*       N/A     75  66  73 SW12G17     N/A
KAPAPALA*        N/A     67  65  95 NW2         N/A
LOWER KAHUKU*    N/A     63 N/A N/A NE1         N/A
PUHE CS*         N/A     82  70  65 SW3         N/A
PUHO CS*         N/A     80  69  68 NW3G10      N/A
PTA KEAMUKU*     N/A     68  63  83 CALM        N/A
WAIKOLOA*        N/A     77  68  73 W9          N/A
$$

HIZ027>028-290500-
BIG ISLAND OF HAWAII INTERIOR AND SUMMMITS-

CITY           SKY/WX    TMP DP  RH WIND       PRES   REMARKS
BRADSHAW FIELD NOT AVBL
MK VISITOR CEN   N/A     46  43  87 NW7         N/A
MAUNA KEA*       N/A     37   9  30 N28         N/A  WCI  25
MAUNA LOA*       N/A     46  37  71 MISG        N/A
MAUNA LOA 1*   NOT AVBL
PTA KIPUKA*      N/A     72  63  73 NW6G12      N/A
PTA RANGE 17*    N/A     61  57  88 W10G16      N/A
PTA WEST*        N/A     64  61  88 NW6G15      N/A
NENE CABIN*      N/A     54  54 100 E3          N/A
AHUMOA*          N/A     54  54 100 VRB5        N/A
PTA PORTABLE*  NOT AVBL
PUU MALI*        N/A     54  54 100 W8G14       N/A
$$

HIC003-290500-
NORTHWEST ISLANDS-

CITY           SKY/WX    TMP DP  RH WIND       PRES   REMARKS
MIDWAY ISLAND  CLOUDY    75  66  73 E12       30.13F
MIDWAY NOS*      N/A     72 N/A N/A MISG      30.12S
FRENCH FRIGATE NOT AVBL
$$

PHZ110>124-180-290500-
BUOY REPORTS

STATION/POSITION TIME  TEMP    WIND        PRES    WAVE   SWELL
                       AIR SEA DIR/SP/G            HT/PER HT/DIR
                 (UTC) (F)     (DEG/KT/KT) (MB)    (FT/S) (FT/D)
BUOY 51001       0400   78 80   60/ 12/ 16 1016.3R
BUOY 51101       0350   77 80  360/ 12/ 14 1015.9R   3/ 7   3/ 90
BUOY 51100       NOT AVBL
BUOY 51002       0350   79 79   80/ 10/ 14 1013.9R   6/ 8   5/100
BUOY 51003       0350   79 83   50/  4/  6 1014.7R   4/10   5/350
BUOY 51004       0350   77 79   80/ 14/ 16 1014.1R   7/ 8   5/ 90
BARBERS PT BUOY  NOT AVBL
WAIMEA BAY BUOY  0404      79                N/A     2/ 8
KAILUA BAY BUOY  0411      79                N/A     4/ 8
LANAI BUOY       0415      81                N/A     3/13   2/210
BARBERS PT 2     0403      79                N/A     3/15   3/160
PAUWELA MAUI     0409      79                N/A     5/ 9   2/340
HILO             0412      80                N/A     5/ 8   2/140
KANEOHE BAY BUOY 0406      78                N/A     3/ 8
HANALEI KAUAI    NOT AVBL
KAHULUI HARBOR   0400   80 80   20/  7/  9 1014.5R
HONOLULU HARBOR  0400   78 80   70/  1/  4 1015.8R
KILO NALU        NOT AVBL
HILO HARBOR      0400   80 78  210/  1/  5 1014.6R
MOKUOLOE         0300   78 81   CALM  /  3 1014.8F
NAWILIWILI       0400   77 81  270/  2/  3 1015.2R
WHOTS BUOY       NOT AVBL
BUOY 51028       NOT AVBL
$$

......................KEY........................................
  SKY/WX - SKY CONDITIONS/PRESENT WEATHER
  TMP    - TEMPERATURE IN FAHRENHEIT
  DWPT   - DEWPOINT IN FAHRENHEIT
  RH     - RELATIVE HUMIDITY IN PERCENT
  WIND   - DIRECTION AND SPEED /MPH FOR ISLANDS...KTS FOR BUOYS/
  PRES   - MEAN SEA LEVEL PRESSURE IN INCHES OF HG
  VSB    - VISIBILITY IN MILES
  HX     - HEAT INDEX
  WCI    - WIND CHILL INDEX
  VRB    - VARIABLE WIND DIRECTION
  N/A    - NOT AVAILABLE



USA.gov is the U.S. government's official web portal to all federal, state and local government web resources and services.